owner,sensor,date,latitude,longitude,mass_concentration_of_chlorophyll_in_sea_water,qcFlag 
SCCF RECON,ioos:station:SCCF:51:1,2009-09-10T19:00:00Z,26.5545,-82.1715,5.17,1111122 
SCCF RECON,ioos:station:SCCF:51:1,2009-09-10T20:00:00Z,26.5545,-82.1715,4.27,1111122 
SCCF RECON,ioos:station:SCCF:51:1,2009-09-10T21:00:00Z,26.5545,-82.1715,5.67,1111122 
SCCF RECON,ioos:station:SCCF:51:1,2009-09-10T22:00:00Z,26.5545,-82.1715,5.64,1111122 
SCCF RECON,ioos:station:SCCF:51:1,2009-09-10T23:00:00Z,26.5545,-82.1715,6.95,1111122 
SCCF RECON,ioos:station:SCCF:51:1,2009-09-11T00:00:00Z,26.5545,-82.1715,7.12,1111122 
SCCF RECON,ioos:station:SCCF:51:1,2009-09-11T01:00:00Z,26.5545,-82.1715,6.94,1111122 
SCCF RECON,ioos:station:SCCF:51:1,2009-09-11T02:00:00Z,26.5545,-82.1715,5.96,1111122 
SCCF RECON,ioos:station:SCCF:51:1,2009-09-11T03:00:00Z,26.5545,-82.1715,5.9,1111122 
SCCF RECON,ioos:station:SCCF:51:1,2009-09-11T04:00:00Z,26.5545,-82.1715,5.67,1111122 
SCCF RECON,ioos:station:SCCF:51:1,2009-09-11T05:00:00Z,26.5545,-82.1715,5.44,1111122 
SCCF RECON,ioos:station:SCCF:51:1,2009-09-11T06:00:00Z,26.5545,-82.1715,5.25,1111122 
SCCF RECON,ioos:station:SCCF:51:1,2009-09-11T07:00:00Z,26.5545,-82.1715,4.77,1111122 
SCCF RECON,ioos:station:SCCF:51:1,2009-09-11T08:00:00Z,26.5545,-82.1715,3.39,1111122 
SCCF RECON,ioos:station:SCCF:51:1,2009-09-11T09:00:00Z,26.5545,-82.1715,3.03,1111122 
SCCF RECON,ioos:station:SCCF:51:1,2009-09-11T10:00:00Z,26.5545,-82.1715,3.08,1111122 
SCCF RECON,ioos:station:SCCF:51:1,2009-09-11T11:00:00Z,26.5545,-82.1715,3.71,1111122 
SCCF RECON,ioos:station:SCCF:51:1,2009-09-11T12:00:00Z,26.5545,-82.1715,5.26,1111122 
SCCF RECON,ioos:station:SCCF:51:1,2009-09-11T13:00:00Z,26.5545,-82.1715,5.17,1111122 
SCCF RECON,ioos:station:SCCF:51:1,2009-09-11T14:00:00Z,26.5545,-82.1715,4.92,1111122 
SCCF RECON,ioos:station:SCCF:51:1,2009-09-11T15:00:00Z,26.5545,-82.1715,5.0,1111122 
SCCF RECON,ioos:station:SCCF:51:1,2009-09-11T16:00:00Z,26.5545,-82.1715,5.51,1111122 
SCCF RECON,ioos:station:SCCF:51:1,2009-09-11T17:00:00Z,26.5545,-82.1715,6.75,1111122 
SCCF RECON,ioos:station:SCCF:51:1,2009-09-11T18:00:00Z,26.5545,-82.1715,7.72,1111122 
SCCF RECON,ioos:station:SCCF:51:1,2009-09-11T19:00:00Z,26.5545,-82.1715,7.44,1111122 
SCCF RECON,ioos:station:SCCF:51:1,2009-09-11T20:00:00Z,26.5545,-82.1715,6.53,1111122 
SCCF RECON,ioos:station:SCCF:51:1,2009-09-11T21:00:00Z,26.5545,-82.1715,6.2,1111122 
SCCF RECON,ioos:station:SCCF:51:1,2009-09-11T22:00:00Z,26.5545,-82.1715,3.77,1111122 
SCCF RECON,ioos:station:SCCF:51:1,2009-09-11T23:00:00Z,26.5545,-82.1715,3.92,1111122 
SCCF RECON,ioos:station:SCCF:51:1,2009-09-12T00:00:00Z,26.5545,-82.1715,3.99,1111122 
SCCF RECON,ioos:station:SCCF:51:1,2009-09-12T01:00:00Z,26.5545,-82.1715,3.06,1111122 
SCCF RECON,ioos:station:SCCF:51:1,2009-09-12T02:00:00Z,26.5545,-82.1715,3.03,1111122 
SCCF RECON,ioos:station:SCCF:51:1,2009-09-12T03:00:00Z,26.5545,-82.1715,2.25,1111122 
SCCF RECON,ioos:station:SCCF:51:1,2009-09-12T04:00:00Z,26.5545,-82.1715,2.7,1111122 
SCCF RECON,ioos:station:SCCF:51:1,2009-09-12T05:00:00Z,26.5545,-82.1715,2.08,1111122 
SCCF RECON,ioos:station:SCCF:51:1,2009-09-12T06:00:00Z,26.5545,-82.1715,2.41,1111122 
SCCF RECON,ioos:station:SCCF:51:1,2009-09-12T07:00:00Z,26.5545,-82.1715,3.32,1111122 
SCCF RECON,ioos:station:SCCF:51:1,2009-09-12T08:00:00Z,26.5545,-82.1715,2.75,1111122 
SCCF RECON,ioos:station:SCCF:51:1,2009-09-12T09:00:00Z,26.5545,-82.1715,1.71,1111122 
SCCF RECON,ioos:station:SCCF:51:1,2009-09-12T10:00:00Z,26.5545,-82.1715,1.75,1111122 
SCCF RECON,ioos:station:SCCF:51:1,2009-09-12T11:00:00Z,26.5545,-82.1715,2.03,1111122 
SCCF RECON,ioos:station:SCCF:51:1,2009-09-12T12:00:00Z,26.5545,-82.1715,2.44,1111122 
SCCF RECON,ioos:station:SCCF:51:1,2009-09-12T13:00:00Z,26.5545,-82.1715,1.79,1111122 
SCCF RECON,ioos:station:SCCF:51:1,2009-09-12T14:00:00Z,26.5545,-82.1715,2.94,1111122 
SCCF RECON,ioos:station:SCCF:51:1,2009-09-12T15:00:00Z,26.5545,-82.1715,3.58,1111122 
SCCF RECON,ioos:station:SCCF:51:1,2009-09-12T16:00:00Z,26.5545,-82.1715,5.41,1111122 
SCCF RECON,ioos:station:SCCF:51:1,2009-09-12T17:00:00Z,26.5545,-82.1715,5.89,1111122 
SCCF RECON,ioos:station:SCCF:51:1,2009-09-12T18:00:00Z,26.5545,-82.1715,6.19,1111122 
SCCF RECON,ioos:station:SCCF:51:1,2009-09-12T19:00:00Z,26.5545,-82.1715,6.07,1111122 
SCCF RECON,ioos:station:SCCF:51:1,2009-09-12T20:00:00Z,26.5545,-82.1715,6.33,1111122 
SCCF RECON,ioos:station:SCCF:51:1,2009-09-12T21:00:00Z,26.5545,-82.1715,7.03,1111122 
SCCF RECON,ioos:station:SCCF:51:1,2009-09-12T22:00:00Z,26.5545,-82.1715,5.69,1111122 
SCCF RECON,ioos:station:SCCF:51:1,2009-09-12T23:00:00Z,26.5545,-82.1715,5.14,1111122 
SCCF RECON,ioos:station:SCCF:51:1,2009-09-13T00:00:00Z,26.5545,-82.1715,3.14,1111122 
SCCF RECON,ioos:station:SCCF:51:1,2009-09-13T01:00:00Z,26.5545,-82.1715,3.18,1111122 
SCCF RECON,ioos:station:SCCF:51:1,2009-09-13T02:00:00Z,26.5545,-82.1715,3.78,1111122 
SCCF RECON,ioos:station:SCCF:51:1,2009-09-13T03:00:00Z,26.5545,-82.1715,3.03,1111122 
SCCF RECON,ioos:station:SCCF:51:1,2009-09-13T04:00:00Z,26.5545,-82.1715,2.78,1111122 
SCCF RECON,ioos:station:SCCF:51:1,2009-09-13T05:00:00Z,26.5545,-82.1715,3.01,1111122 
SCCF RECON,ioos:station:SCCF:51:1,2009-09-13T06:00:00Z,26.5545,-82.1715,2.49,1111122 
SCCF RECON,ioos:station:SCCF:51:1,2009-09-13T07:00:00Z,26.5545,-82.1715,3.43,1111122 
SCCF RECON,ioos:station:SCCF:51:1,2009-09-13T08:00:00Z,26.5545,-82.1715,2.31,1111122 
SCCF RECON,ioos:station:SCCF:51:1,2009-09-13T09:00:00Z,26.5545,-82.1715,2.23,1111122 
SCCF RECON,ioos:station:SCCF:51:1,2009-09-13T10:00:00Z,26.5545,-82.1715,1.83,1111122 
SCCF RECON,ioos:station:SCCF:51:1,2009-09-13T11:00:00Z,26.5545,-82.1715,1.59,1111122 
SCCF RECON,ioos:station:SCCF:51:1,2009-09-13T12:00:00Z,26.5545,-82.1715,1.4,1111122 
SCCF RECON,ioos:station:SCCF:51:1,2009-09-13T13:00:00Z,26.5545,-82.1715,2.02,1111122 
SCCF RECON,ioos:station:SCCF:51:1,2009-09-13T14:00:00Z,26.5545,-82.1715,2.33,1111122 
SCCF RECON,ioos:station:SCCF:51:1,2009-09-13T15:00:00Z,26.5545,-82.1715,3.87,1111122 
SCCF RECON,ioos:station:SCCF:51:1,2009-09-13T16:00:00Z,26.5545,-82.1715,3.69,1111122 
SCCF RECON,ioos:station:SCCF:51:1,2009-09-13T17:00:00Z,26.5545,-82.1715,4.77,1111122 
SCCF RECON,ioos:station:SCCF:51:1,2009-09-13T18:00:00Z,26.5545,-82.1715,5.8,1111122 
SCCF RECON,ioos:station:SCCF:51:1,2009-09-13T19:00:00Z,26.5545,-82.1715,5.57,1111122 
SCCF RECON,ioos:station:SCCF:51:1,2009-09-13T20:00:00Z,26.5545,-82.1715,5.52,1111122 
SCCF RECON,ioos:station:SCCF:51:1,2009-09-13T21:00:00Z,26.5545,-82.1715,5.25,1111122 
SCCF RECON,ioos:station:SCCF:51:1,2009-09-13T22:00:00Z,26.5545,-82.1715,5.16,1111122 
SCCF RECON,ioos:station:SCCF:51:1,2009-09-13T23:00:00Z,26.5545,-82.1715,6.04,1111122 
SCCF RECON,ioos:station:SCCF:51:1,2009-09-14T00:00:00Z,26.5545,-82.1715,4.5,1111122 
SCCF RECON,ioos:station:SCCF:51:1,2009-09-14T01:00:00Z,26.5545,-82.1715,6.54,1111122 
SCCF RECON,ioos:station:SCCF:51:1,2009-09-14T02:00:00Z,26.5545,-82.1715,5.24,1111122 
SCCF RECON,ioos:station:SCCF:51:1,2009-09-14T03:00:00Z,26.5545,-82.1715,4.3,1111122 
SCCF RECON,ioos:station:SCCF:51:1,2009-09-14T04:00:00Z,26.5545,-82.1715,3.49,1111122 
SCCF RECON,ioos:station:SCCF:51:1,2009-09-14T05:00:00Z,26.5545,-82.1715,5.45,1111122 
SCCF RECON,ioos:station:SCCF:51:1,2009-09-14T06:00:00Z,26.5545,-82.1715,3.72,1111122 
SCCF RECON,ioos:station:SCCF:51:1,2009-09-14T07:00:00Z,26.5545,-82.1715,3.41,1111122 
SCCF RECON,ioos:station:SCCF:51:1,2009-09-14T08:00:00Z,26.5545,-82.1715,3.03,1111122 
SCCF RECON,ioos:station:SCCF:51:1,2009-09-14T09:00:00Z,26.5545,-82.1715,3.54,1111122 
SCCF RECON,ioos:station:SCCF:51:1,2009-09-14T10:00:00Z,26.5545,-82.1715,3.43,1111122 
SCCF RECON,ioos:station:SCCF:51:1,2009-09-14T11:00:00Z,26.5545,-82.1715,3.59,1111122 
SCCF RECON,ioos:station:SCCF:51:1,2009-09-14T12:00:00Z,26.5545,-82.1715,3.25,1111122 
SCCF RECON,ioos:station:SCCF:51:1,2009-09-14T13:00:00Z,26.5545,-82.1715,3.13,1111122 
SCCF RECON,ioos:station:SCCF:51:1,2009-09-14T14:00:00Z,26.5545,-82.1715,3.48,1111122 
SCCF RECON,ioos:station:SCCF:51:1,2009-09-14T15:00:00Z,26.5545,-82.1715,3.86,1111122 
SCCF RECON,ioos:station:SCCF:51:1,2009-09-14T16:00:00Z,26.5545,-82.1715,4.13,1111122 
SCCF RECON,ioos:station:SCCF:51:1,2009-09-14T17:00:00Z,26.5545,-82.1715,5.71,1111122 
SCCF RECON,ioos:station:SCCF:51:1,2009-09-14T18:00:00Z,26.5545,-82.1715,4.43,1111122 
SCCF RECON,ioos:station:SCCF:51:1,2009-09-14T19:00:00Z,26.5545,-82.1715,4.55,1111122 
SCCF RECON,ioos:station:SCCF:51:1,2009-09-14T20:00:00Z,26.5545,-82.1715,4.15,1111122 
SCCF RECON,ioos:station:SCCF:51:1,2009-09-14T21:00:00Z,26.5545,-82.1715,3.94,1111122 
SCCF RECON,ioos:station:SCCF:51:1,2009-09-14T22:00:00Z,26.5545,-82.1715,4.07,1111122 
SCCF RECON,ioos:station:SCCF:51:1,2009-09-14T23:00:00Z,26.5545,-82.1715,4.0,1111122 
SCCF RECON,ioos:station:SCCF:51:1,2009-09-15T00:00:00Z,26.5545,-82.1715,5.31,1111122 
SCCF RECON,ioos:station:SCCF:51:1,2009-09-15T01:00:00Z,26.5545,-82.1715,4.27,1111122 
SCCF RECON,ioos:station:SCCF:51:1,2009-09-15T02:00:00Z,26.5545,-82.1715,4.26,1111122 
SCCF RECON,ioos:station:SCCF:51:1,2009-09-15T03:00:00Z,26.5545,-82.1715,3.95,1111122 
SCCF RECON,ioos:station:SCCF:51:1,2009-09-15T04:00:00Z,26.5545,-82.1715,4.04,1111122 
SCCF RECON,ioos:station:SCCF:51:1,2009-09-15T05:00:00Z,26.5545,-82.1715,3.75,1111122 
SCCF RECON,ioos:station:SCCF:51:1,2009-09-15T06:00:00Z,26.5545,-82.1715,3.85,1111122 
SCCF RECON,ioos:station:SCCF:51:1,2009-09-15T07:00:00Z,26.5545,-82.1715,3.92,1111122 
SCCF RECON,ioos:station:SCCF:51:1,2009-09-15T08:00:00Z,26.5545,-82.1715,3.29,1111122 
SCCF RECON,ioos:station:SCCF:51:1,2009-09-15T09:00:00Z,26.5545,-82.1715,3.61,1111122 
SCCF RECON,ioos:station:SCCF:51:1,2009-09-15T10:00:00Z,26.5545,-82.1715,3.48,1111122 
SCCF RECON,ioos:station:SCCF:51:1,2009-09-15T11:00:00Z,26.5545,-82.1715,3.51,1111122 
SCCF RECON,ioos:station:SCCF:51:1,2009-09-15T12:00:00Z,26.5545,-82.1715,3.83,1111122 
SCCF RECON,ioos:station:SCCF:51:1,2009-09-15T13:00:00Z,26.5545,-82.1715,4.74,1111122 
SCCF RECON,ioos:station:SCCF:51:1,2009-09-15T14:00:00Z,26.5545,-82.1715,4.27,1111122 
SCCF RECON,ioos:station:SCCF:51:1,2009-09-15T15:00:00Z,26.5545,-82.1715,4.7,1111122 
SCCF RECON,ioos:station:SCCF:51:1,2009-09-15T16:00:00Z,26.5545,-82.1715,5.06,1111122 
SCCF RECON,ioos:station:SCCF:51:1,2009-09-15T17:00:00Z,26.5545,-82.1715,4.61,1111122 
SCCF RECON,ioos:station:SCCF:51:1,2009-09-15T18:00:00Z,26.5545,-82.1715,5.21,1111122 
SCCF RECON,ioos:station:SCCF:51:1,2009-09-15T19:00:00Z,26.5545,-82.1715,4.24,1111122 
SCCF RECON,ioos:station:SCCF:51:1,2009-09-15T20:00:00Z,26.5545,-82.1715,5.27,1111122 
SCCF RECON,ioos:station:SCCF:51:1,2009-09-15T21:00:00Z,26.5545,-82.1715,5.2,1111122 
SCCF RECON,ioos:station:SCCF:51:1,2009-09-15T22:00:00Z,26.5545,-82.1715,5.41,1111122 
SCCF RECON,ioos:station:SCCF:51:1,2009-09-15T23:00:00Z,26.5545,-82.1715,5.95,1111122 
SCCF RECON,ioos:station:SCCF:51:1,2009-09-16T00:00:00Z,26.5545,-82.1715,4.91,1111122 
SCCF RECON,ioos:station:SCCF:51:1,2009-09-16T01:00:00Z,26.5545,-82.1715,5.44,1111122 
SCCF RECON,ioos:station:SCCF:51:1,2009-09-16T02:00:00Z,26.5545,-82.1715,4.82,1111122 
SCCF RECON,ioos:station:SCCF:51:1,2009-09-16T03:00:00Z,26.5545,-82.1715,5.46,1111122 
SCCF RECON,ioos:station:SCCF:51:1,2009-09-16T04:00:00Z,26.5545,-82.1715,5.54,1111122 
SCCF RECON,ioos:station:SCCF:51:1,2009-09-16T05:00:00Z,26.5545,-82.1715,3.96,1111122 
SCCF RECON,ioos:station:SCCF:51:1,2009-09-16T06:00:00Z,26.5545,-82.1715,3.88,1111122 
SCCF RECON,ioos:station:SCCF:51:1,2009-09-16T07:00:00Z,26.5545,-82.1715,4.14,1111122 
SCCF RECON,ioos:station:SCCF:51:1,2009-09-16T08:00:00Z,26.5545,-82.1715,4.91,1111122 
SCCF RECON,ioos:station:SCCF:51:1,2009-09-16T09:00:00Z,26.5545,-82.1715,4.53,1111122 
SCCF RECON,ioos:station:SCCF:51:1,2009-09-16T10:00:00Z,26.5545,-82.1715,4.27,1111122 
SCCF RECON,ioos:station:SCCF:51:1,2009-09-16T11:00:00Z,26.5545,-82.1715,4.26,1111122 
SCCF RECON,ioos:station:SCCF:51:1,2009-09-16T12:00:00Z,26.5545,-82.1715,4.42,1111122 
SCCF RECON,ioos:station:SCCF:51:1,2009-09-16T13:00:00Z,26.5545,-82.1715,4.55,1111122 
SCCF RECON,ioos:station:SCCF:51:1,2009-09-16T14:00:00Z,26.5545,-82.1715,4.87,1111122 
SCCF RECON,ioos:station:SCCF:51:1,2009-09-16T15:00:00Z,26.5545,-82.1715,5.26,1111122 
SCCF RECON,ioos:station:SCCF:51:1,2009-09-16T16:00:00Z,26.5545,-82.1715,5.16,1111122 
SCCF RECON,ioos:station:SCCF:51:1,2009-09-16T17:00:00Z,26.5545,-82.1715,4.75,1111122 
SCCF RECON,ioos:station:SCCF:51:1,2009-09-16T18:00:00Z,26.5545,-82.1715,4.04,1111122 
SCCF RECON,ioos:station:SCCF:51:1,2009-09-16T19:00:00Z,26.5545,-82.1715,5.77,1111122 
SCCF RECON,ioos:station:SCCF:51:1,2009-09-16T20:00:00Z,26.5545,-82.1715,5.41,1111122 
SCCF RECON,ioos:station:SCCF:51:1,2009-09-16T21:00:00Z,26.5545,-82.1715,5.29,1111122 
SCCF RECON,ioos:station:SCCF:51:1,2009-09-16T22:00:00Z,26.5545,-82.1715,5.49,1111122 
SCCF RECON,ioos:station:SCCF:51:1,2009-09-16T23:00:00Z,26.5545,-82.1715,6.11,1111122 
SCCF RECON,ioos:station:SCCF:51:1,2009-09-17T00:00:00Z,26.5545,-82.1715,5.12,1111122 
SCCF RECON,ioos:station:SCCF:51:1,2009-09-17T01:00:00Z,26.5545,-82.1715,4.87,1111122 
SCCF RECON,ioos:station:SCCF:51:1,2009-09-17T02:00:00Z,26.5545,-82.1715,4.26,1111122 
SCCF RECON,ioos:station:SCCF:51:1,2009-09-17T03:00:00Z,26.5545,-82.1715,4.1,1111122 
SCCF RECON,ioos:station:SCCF:51:1,2009-09-17T04:00:00Z,26.5545,-82.1715,3.88,1111122 
SCCF RECON,ioos:station:SCCF:51:1,2009-09-17T05:00:00Z,26.5545,-82.1715,3.68,1111122 
SCCF RECON,ioos:station:SCCF:51:1,2009-09-17T06:00:00Z,26.5545,-82.1715,3.8,1111122 
SCCF RECON,ioos:station:SCCF:51:1,2009-09-17T07:00:00Z,26.5545,-82.1715,3.86,1111122 
SCCF RECON,ioos:station:SCCF:51:1,2009-09-17T08:00:00Z,26.5545,-82.1715,4.08,1111122 
SCCF RECON,ioos:station:SCCF:51:1,2009-09-17T09:00:00Z,26.5545,-82.1715,3.7,1111122 
SCCF RECON,ioos:station:SCCF:51:1,2009-09-17T10:00:00Z,26.5545,-82.1715,3.97,1111122 
SCCF RECON,ioos:station:SCCF:51:1,2009-09-17T11:00:00Z,26.5545,-82.1715,12.01,1111122 
SCCF RECON,ioos:station:SCCF:51:1,2009-09-17T12:00:00Z,26.5545,-82.1715,3.02,1111122 
SCCF RECON,ioos:station:SCCF:51:1,2009-09-17T13:00:00Z,26.5545,-82.1715,3.71,1111122 
SCCF RECON,ioos:station:SCCF:51:1,2009-09-17T14:00:00Z,26.5545,-82.1715,3.09,1111122 
SCCF RECON,ioos:station:SCCF:51:1,2009-09-17T15:00:00Z,26.5545,-82.1715,3.44,1111122 
SCCF RECON,ioos:station:SCCF:51:1,2009-09-17T16:00:00Z,26.5545,-82.1715,3.21,1111122 
SCCF RECON,ioos:station:SCCF:51:1,2009-09-17T17:00:00Z,26.5545,-82.1715,3.26,1111122 
SCCF RECON,ioos:station:SCCF:51:1,2009-09-17T18:00:00Z,26.5545,-82.1715,3.14,1111122 
SCCF RECON,ioos:station:SCCF:51:1,2009-09-17T19:00:00Z,26.5545,-82.1715,3.55,1111122 
SCCF RECON,ioos:station:SCCF:51:1,2009-09-17T20:00:00Z,26.5545,-82.1715,5.82,1111122 
SCCF RECON,ioos:station:SCCF:51:1,2009-09-17T21:00:00Z,26.5545,-82.1715,6.01,1111122 
SCCF RECON,ioos:station:SCCF:51:1,2009-09-17T22:00:00Z,26.5545,-82.1715,6.31,1111122 
SCCF RECON,ioos:station:SCCF:51:1,2009-09-17T23:00:00Z,26.5545,-82.1715,6.76,1111122 
SCCF RECON,ioos:station:SCCF:51:1,2009-09-18T00:00:00Z,26.5545,-82.1715,6.49,1111122 
SCCF RECON,ioos:station:SCCF:51:1,2009-09-18T01:00:00Z,26.5545,-82.1715,6.13,1111122 
SCCF RECON,ioos:station:SCCF:51:1,2009-09-18T02:00:00Z,26.5545,-82.1715,4.65,1111122 
SCCF RECON,ioos:station:SCCF:51:1,2009-09-18T03:00:00Z,26.5545,-82.1715,3.48,1111122 
SCCF RECON,ioos:station:SCCF:51:1,2009-09-18T04:00:00Z,26.5545,-82.1715,3.08,1111122 
SCCF RECON,ioos:station:SCCF:51:1,2009-09-18T05:00:00Z,26.5545,-82.1715,3.14,1111122 
SCCF RECON,ioos:station:SCCF:51:1,2009-09-18T06:00:00Z,26.5545,-82.1715,3.62,1111122 
SCCF RECON,ioos:station:SCCF:51:1,2009-09-18T07:00:00Z,26.5545,-82.1715,3.64,1111122 
SCCF RECON,ioos:station:SCCF:51:1,2009-09-18T08:00:00Z,26.5545,-82.1715,3.68,1111122 
SCCF RECON,ioos:station:SCCF:51:1,2009-09-18T09:00:00Z,26.5545,-82.1715,3.94,1111122 
SCCF RECON,ioos:station:SCCF:51:1,2009-09-18T10:00:00Z,26.5545,-82.1715,3.16,1111122 
SCCF RECON,ioos:station:SCCF:51:1,2009-09-18T11:00:00Z,26.5545,-82.1715,3.91,1111122 
SCCF RECON,ioos:station:SCCF:51:1,2009-09-18T12:00:00Z,26.5545,-82.1715,3.57,1111122 
SCCF RECON,ioos:station:SCCF:51:1,2009-09-18T13:00:00Z,26.5545,-82.1715,2.42,1111122 
SCCF RECON,ioos:station:SCCF:51:1,2009-09-18T14:00:00Z,26.5545,-82.1715,2.54,1111122 
SCCF RECON,ioos:station:SCCF:51:1,2009-09-18T15:00:00Z,26.5545,-82.1715,2.93,1111122 
SCCF RECON,ioos:station:SCCF:51:1,2009-09-18T16:00:00Z,26.5545,-82.1715,3.86,1111122 
SCCF RECON,ioos:station:SCCF:51:1,2009-09-18T17:00:00Z,26.5545,-82.1715,2.51,1111122 
SCCF RECON,ioos:station:SCCF:51:1,2009-09-18T18:00:00Z,26.5545,-82.1715,2.9,1111122 
SCCF RECON,ioos:station:SCCF:51:1,2009-09-18T19:00:00Z,26.5545,-82.1715,2.4,1111122 
SCCF RECON,ioos:station:SCCF:51:1,2009-09-18T20:00:00Z,26.5545,-82.1715,5.88,1111122 
SCCF RECON,ioos:station:SCCF:51:1,2009-09-18T21:00:00Z,26.5545,-82.1715,4.75,1111122 
SCCF RECON,ioos:station:SCCF:51:1,2009-09-18T22:00:00Z,26.5545,-82.1715,4.64,1111122 
SCCF RECON,ioos:station:SCCF:51:1,2009-09-18T23:00:00Z,26.5545,-82.1715,4.56,1111122 
SCCF RECON,ioos:station:SCCF:51:1,2009-09-19T00:00:00Z,26.5545,-82.1715,5.39,1111122 
SCCF RECON,ioos:station:SCCF:51:1,2009-09-19T01:00:00Z,26.5545,-82.1715,4.48,1111122 
SCCF RECON,ioos:station:SCCF:51:1,2009-09-19T02:00:00Z,26.5545,-82.1715,4.02,1111122 
SCCF RECON,ioos:station:SCCF:51:1,2009-09-19T03:00:00Z,26.5545,-82.1715,3.67,1111122 
SCCF RECON,ioos:station:SCCF:51:1,2009-09-19T04:00:00Z,26.5545,-82.1715,4.02,1111122 
SCCF RECON,ioos:station:SCCF:51:1,2009-09-19T05:00:00Z,26.5545,-82.1715,3.34,1111122 
SCCF RECON,ioos:station:SCCF:51:1,2009-09-19T06:00:00Z,26.5545,-82.1715,3.37,1111122 
SCCF RECON,ioos:station:SCCF:51:1,2009-09-19T07:00:00Z,26.5545,-82.1715,3.23,1111122 
SCCF RECON,ioos:station:SCCF:51:1,2009-09-19T08:00:00Z,26.5545,-82.1715,3.08,1111122 
SCCF RECON,ioos:station:SCCF:51:1,2009-09-19T09:00:00Z,26.5545,-82.1715,4.02,1111122 
SCCF RECON,ioos:station:SCCF:51:1,2009-09-19T10:00:00Z,26.5545,-82.1715,4.46,1111122 
SCCF RECON,ioos:station:SCCF:51:1,2009-09-19T11:00:00Z,26.5545,-82.1715,4.03,1111122 
SCCF RECON,ioos:station:SCCF:51:1,2009-09-19T12:00:00Z,26.5545,-82.1715,4.15,1111122 
SCCF RECON,ioos:station:SCCF:51:1,2009-09-19T13:00:00Z,26.5545,-82.1715,4.17,1111122 
SCCF RECON,ioos:station:SCCF:51:1,2009-09-19T14:00:00Z,26.5545,-82.1715,4.21,1111122 
SCCF RECON,ioos:station:SCCF:51:1,2009-09-19T15:00:00Z,26.5545,-82.1715,3.04,1111122 
SCCF RECON,ioos:station:SCCF:51:1,2009-09-19T16:00:00Z,26.5545,-82.1715,3.55,1111122 
SCCF RECON,ioos:station:SCCF:51:1,2009-09-19T17:00:00Z,26.5545,-82.1715,4.9,1111122 
SCCF RECON,ioos:station:SCCF:51:1,2009-09-19T18:00:00Z,26.5545,-82.1715,3.53,1111122 
SCCF RECON,ioos:station:SCCF:51:1,2009-09-19T19:00:00Z,26.5545,-82.1715,3.03,1111122 
SCCF RECON,ioos:station:SCCF:51:1,2009-09-19T20:00:00Z,26.5545,-82.1715,4.05,1111122 
SCCF RECON,ioos:station:SCCF:51:1,2009-09-19T21:00:00Z,26.5545,-82.1715,5.36,1111122 
SCCF RECON,ioos:station:SCCF:51:1,2009-09-19T22:00:00Z,26.5545,-82.1715,4.05,1111122 
SCCF RECON,ioos:station:SCCF:51:1,2009-09-19T23:00:00Z,26.5545,-82.1715,5.43,1111122 
SCCF RECON,ioos:station:SCCF:51:1,2009-09-20T00:00:00Z,26.5545,-82.1715,5.4,1111122 
SCCF RECON,ioos:station:SCCF:51:1,2009-09-20T01:00:00Z,26.5545,-82.1715,5.11,1111122 
SCCF RECON,ioos:station:SCCF:51:1,2009-09-20T02:00:00Z,26.5545,-82.1715,4.87,1111122 
SCCF RECON,ioos:station:SCCF:51:1,2009-09-20T03:00:00Z,26.5545,-82.1715,4.19,1111122 
SCCF RECON,ioos:station:SCCF:51:1,2009-09-20T04:00:00Z,26.5545,-82.1715,3.97,1111122 
SCCF RECON,ioos:station:SCCF:51:1,2009-09-20T05:00:00Z,26.5545,-82.1715,4.77,1111122 
SCCF RECON,ioos:station:SCCF:51:1,2009-09-20T06:00:00Z,26.5545,-82.1715,3.46,1111122 
SCCF RECON,ioos:station:SCCF:51:1,2009-09-20T07:00:00Z,26.5545,-82.1715,3.94,1111122 
SCCF RECON,ioos:station:SCCF:51:1,2009-09-20T08:00:00Z,26.5545,-82.1715,4.25,1111122 
SCCF RECON,ioos:station:SCCF:51:1,2009-09-20T09:00:00Z,26.5545,-82.1715,3.88,1111122 
SCCF RECON,ioos:station:SCCF:51:1,2009-09-20T10:00:00Z,26.5545,-82.1715,3.89,1111122 
SCCF RECON,ioos:station:SCCF:51:1,2009-09-20T11:00:00Z,26.5545,-82.1715,3.43,1111122 
SCCF RECON,ioos:station:SCCF:51:1,2009-09-20T12:00:00Z,26.5545,-82.1715,3.3,1111122 
SCCF RECON,ioos:station:SCCF:51:1,2009-09-20T13:00:00Z,26.5545,-82.1715,3.24,1111122 
SCCF RECON,ioos:station:SCCF:51:1,2009-09-20T14:00:00Z,26.5545,-82.1715,3.69,1111122 
SCCF RECON,ioos:station:SCCF:51:1,2009-09-20T15:00:00Z,26.5545,-82.1715,3.03,1111122 
SCCF RECON,ioos:station:SCCF:51:1,2009-09-20T16:00:00Z,26.5545,-82.1715,3.03,1111122 
SCCF RECON,ioos:station:SCCF:51:1,2009-09-20T17:00:00Z,26.5545,-82.1715,4.47,1111122 
SCCF RECON,ioos:station:SCCF:51:1,2009-09-20T18:00:00Z,26.5545,-82.1715,4.82,1111122 
SCCF RECON,ioos:station:SCCF:51:1,2009-09-20T19:00:00Z,26.5545,-82.1715,3.18,1111122 
SCCF RECON,ioos:station:SCCF:51:1,2009-09-20T20:00:00Z,26.5545,-82.1715,2.88,1111122 
SCCF RECON,ioos:station:SCCF:51:1,2009-09-20T21:00:00Z,26.5545,-82.1715,5.98,1111122 
SCCF RECON,ioos:station:SCCF:51:1,2009-09-20T22:00:00Z,26.5545,-82.1715,3.72,1111122 
SCCF RECON,ioos:station:SCCF:51:1,2009-09-20T23:00:00Z,26.5545,-82.1715,4.13,1111122 
SCCF RECON,ioos:station:SCCF:51:1,2009-09-21T00:00:00Z,26.5545,-82.1715,4.56,1111122 
SCCF RECON,ioos:station:SCCF:51:1,2009-09-21T01:00:00Z,26.5545,-82.1715,3.87,1111122 
SCCF RECON,ioos:station:SCCF:51:1,2009-09-21T02:00:00Z,26.5545,-82.1715,4.1,1111122 
SCCF RECON,ioos:station:SCCF:51:1,2009-09-21T03:00:00Z,26.5545,-82.1715,3.26,1111122 
SCCF RECON,ioos:station:SCCF:51:1,2009-09-21T04:00:00Z,26.5545,-82.1715,3.55,1111122 
SCCF RECON,ioos:station:SCCF:51:1,2009-09-21T05:00:00Z,26.5545,-82.1715,3.66,1111122 
SCCF RECON,ioos:station:SCCF:51:1,2009-09-21T06:00:00Z,26.5545,-82.1715,4.21,1111122 
SCCF RECON,ioos:station:SCCF:51:1,2009-09-21T07:00:00Z,26.5545,-82.1715,3.77,1111122 
SCCF RECON,ioos:station:SCCF:51:1,2009-09-21T08:00:00Z,26.5545,-82.1715,3.37,1111122 
SCCF RECON,ioos:station:SCCF:51:1,2009-09-21T09:00:00Z,26.5545,-82.1715,3.54,1111122 
SCCF RECON,ioos:station:SCCF:51:1,2009-09-21T10:00:00Z,26.5545,-82.1715,3.23,1111122 
SCCF RECON,ioos:station:SCCF:51:1,2009-09-21T11:00:00Z,26.5545,-82.1715,4.0,1111122 
SCCF RECON,ioos:station:SCCF:51:1,2009-09-21T12:00:00Z,26.5545,-82.1715,3.66,1111122 
SCCF RECON,ioos:station:SCCF:51:1,2009-09-21T13:00:00Z,26.5545,-82.1715,3.49,1111122 
SCCF RECON,ioos:station:SCCF:51:1,2009-09-21T14:00:00Z,26.5545,-82.1715,3.3,1111122 
SCCF RECON,ioos:station:SCCF:51:1,2009-09-21T15:00:00Z,26.5545,-82.1715,3.86,1111122 
SCCF RECON,ioos:station:SCCF:51:1,2009-09-21T16:00:00Z,26.5545,-82.1715,3.17,1111122 
SCCF RECON,ioos:station:SCCF:51:1,2009-09-21T17:00:00Z,26.5545,-82.1715,3.4,1111122 
SCCF RECON,ioos:station:SCCF:51:1,2009-09-21T18:00:00Z,26.5545,-82.1715,3.79,1111122 
SCCF RECON,ioos:station:SCCF:51:1,2009-09-21T19:00:00Z,26.5545,-82.1715,4.22,1111122 
SCCF RECON,ioos:station:SCCF:51:1,2009-09-21T20:00:00Z,26.5545,-82.1715,3.8,1111122 
SCCF RECON,ioos:station:SCCF:51:1,2009-09-21T21:00:00Z,26.5545,-82.1715,2.9,1111122 
SCCF RECON,ioos:station:SCCF:51:1,2009-09-21T22:00:00Z,26.5545,-82.1715,4.36,1111122 
SCCF RECON,ioos:station:SCCF:51:1,2009-09-21T23:00:00Z,26.5545,-82.1715,4.49,1111122 
SCCF RECON,ioos:station:SCCF:51:1,2009-09-22T00:00:00Z,26.5545,-82.1715,4.05,1111122 
SCCF RECON,ioos:station:SCCF:51:1,2009-09-22T01:00:00Z,26.5545,-82.1715,4.19,1111122 
SCCF RECON,ioos:station:SCCF:51:1,2009-09-22T02:00:00Z,26.5545,-82.1715,4.45,1111122 
SCCF RECON,ioos:station:SCCF:51:1,2009-09-22T03:00:00Z,26.5545,-82.1715,3.73,1111122 
SCCF RECON,ioos:station:SCCF:51:1,2009-09-22T04:00:00Z,26.5545,-82.1715,3.16,1111122 
SCCF RECON,ioos:station:SCCF:51:1,2009-09-22T05:00:00Z,26.5545,-82.1715,3.8,1111122 
SCCF RECON,ioos:station:SCCF:51:1,2009-09-22T06:00:00Z,26.5545,-82.1715,4.31,1111122 
SCCF RECON,ioos:station:SCCF:51:1,2009-09-22T07:00:00Z,26.5545,-82.1715,3.89,1111122 
SCCF RECON,ioos:station:SCCF:51:1,2009-09-22T08:00:00Z,26.5545,-82.1715,4.09,1111122 